Location: Unspecified
(54.1780°N, 0.0000°E)
Time: 12:37:05
(UTC+00:00)

Explorer 7 - Pass Details

Date: 21 June 2019
Orbit: 485 x 680 km, 50.3° (Epoch: 20 July)

Event Time Altitude Azimuth Distance (km) Brightness Sun altitude
Rises 13:35:19 0° 275° (W) 2,932 10.8 54.6°
Reaches altitude 10° 13:37:42 10° 268° (W) 2,049 10.2 54.4°
Maximum altitude 13:42:07 39° 200° (SSW) 990 9.8 54.0°
Drops below altitude 10° 13:46:40 10° 132° (SE) 2,109 9.9 53.5°
Sets 13:49:09 0° 125° (SE) 3,028 10.5 53.3°
